Preview of NWS' New Version of Forecast
This preview is not operational and should not be used for support decisions.

Regional Weather Roundup (RWR)

Issued by National Weather Service (NWS)

                            
000
ASUS43 KDTX 181610
RWRMI 
MICHIGAN HOURLY REGIONAL WEATHER ROUNDUP
NATIONAL WEATHER SERVICE DETROIT/PONTIAC MI
1200 PM EDT THU APR 18 2019

NOTE: "FAIR" INDICATES FEW OR NO CLOUDS BELOW 12,000 FEET WITH NO
SIGNIFICANT WEATHER AND/OR OBSTRUCTION TO VISIBILITY.

MIZ047>049-052>055-059>063-066>070-074>076-081>083-181700-
SOUTHEAST LOWER MICHIGAN
  
CITY           SKY/WX    TMP DP  RH WIND       PRES   REMARKS
ADRIAN         LGT RAIN  63  55  75 SW17G30   29.63F                  
ALMA           RAIN      64  60  88 S10G18    29.51S                  
ANN ARBOR      CLOUDY    62  57  83 S16G25    29.63R                  
BAD AXE        CLOUDY    61  58  89 S12       29.52F                  
CARO           CLOUDY    62  58  86 S10G16    29.53R                  
DETROIT CITY   PTSUNNY   64  54  69 SW16      29.61R                  
DETROIT        CLOUDY    66  55  67 SW22G31   29.63R                  
FLINT          CLOUDY    65  55  70 S15G25    29.55S                  
GROSSE ILE     CLOUDY    66  57  72 SW12G18   29.63R                  
HILLSDALE      LGT RAIN  62  57  83 S14G20    29.61F                  
HOWELL         LGT RAIN  62  55  77 S17G28    29.60R                  

CITY           SKY/WX    TMP DP  RH WIND       PRES   REMARKS
JACKSON        LGT RAIN  62  59  90 S13G25    29.60S                  
LAMBERTVILLE   PTSUNNY   67  56  65 SW13G26   29.64R                  
LANSING        CLOUDY    65  57  75 S23G37    29.55R                  
LAPEER         CLOUDY    64  56  76 S12G18    29.57S                  
MASON          CLOUDY    64  58  79 S10G18    29.59R                  
MONROE         CLOUDY    68  59  73 SW20G31   29.63R                  
MT. CLEMENS    PTSUNNY   65  59  80 S13       29.60R                  
PONTIAC        CLOUDY    62  56  80 S10G22    29.59R                  
PORT HOPE        N/A     63  58  83 S8        29.49F                  
PORT HURON     CLOUDY    63  50  63 S15       29.61R                  
TRI CITIES     LGT RAIN  64  60  87 S16G23    29.51R                  
MIDLAND        DRIZZLE   64  60  87 SW8G20    29.50R                  
TROY           CLOUDY    65  55  69 SW20G25   29.63R                  
SAGINAW HB     RAIN      64  61  88 S18G25    29.52R                  
$$
MIZ043>046-050>051-056>058-064>065-071>073-077>080-181700-
SOUTHWEST LOWER MICHIGAN
  
CITY           SKY/WX    TMP DP  RH WIND       PRES   REMARKS
BATTLE CREEK   RAIN      62  59  90 S20G29    29.56S                  
BENTON HARBOR  HVY RAIN  52  50  93 VRB3      29.56S FOG              
BIG RAPIDS     CLOUDY    53  52  95 W6        29.53R                  
COLDWATER      RAIN      62  61  96 SW16G24   29.59F                  
FREMONT        CLOUDY    50  49  94 NW7       29.56R                  
HOLLAND        RAIN      49  47  93 W7        29.57R FOG              
GRAND RAPIDS   LGT RAIN  56  54  93 SW8       29.55R FOG              
IONIA          HVY RAIN  57  55  94 W14       29.54R                  
KALAMAZOO      RAIN      62  59  90 S15G28    29.57S FOG              
LUDINGTON      DRIZZLE   39  38  97 N6        29.59R WCI  35          
MARSHALL       RAIN      62  62 100 S9G16     29.57F                  
MOUNT PLEASANT RAIN      59  59 100 SW5       29.51R                  
MUSKEGON       LGT RAIN  47  43  86 W8        29.58R FOG              
SOUTH HAVEN    LGT RAIN  51  49  94 NW5       29.56F                  
$$
MIZ016>042-181700-
NORTHERN LOWER MICHIGAN
  
CITY           SKY/WX    TMP DP  RH WIND       PRES   REMARKS
ALPENA         CLOUDY    59  53  80 W6        29.48S                  
BEAVER ISLAND  FOG       38  38 100 CALM      29.54R VSB 1/4          
BELLAIRE       CLOUDY    43  40  90 CALM      29.56R                  
CADILLAC       CLOUDY    51  49  95 W6        29.52R FOG              
CHARLEVOIX     FOG       38  38  97 W9        29.58R VSB 1   WCI  32  
FRANKFORT      CLOUDY    41  38  87 NW6       29.58R FOG              
GAYLORD        CLOUDY    44  43  96 W9        29.52R                  
GRAYLING       LGT RAIN  48  46  93 NW7       29.52R FOG              
HARBOR SPRINGS FOG       35  34  96 SW5       29.53R VSB 1/4 WCI  31  
HOUGHTON LAKE  RAIN      53  51  93 W7        29.51R VSB 1            
MANISTEE       LGT RAIN  37  37 100 NW8       29.59R FOG     WCI  31  
OSCODA         DRIZZLE   58  58 100 SW6       29.47F                  
PELLSTON       CLOUDY    42  40  92 NW6       29.53                   
ROGERS CITY    CLOUDY    49  47  92 W8        29.51S FOG              
TRAVERSE CITY  CLOUDY    44  41  89 NW6       29.55R FOG              
$$
MIZ007>008-015-181700-
EASTERN UPPER MICHIGAN
  
CITY           SKY/WX    TMP DP  RH WIND       PRES   REMARKS
KINROSS        FOG       40  40 100 N7        29.51R VSB 1/4          
MACKINAC ISLAN FOG       39  39 100 NW6       29.51S VSB 1/4          
NEWBERRY       FOG       38  36  92 N6        29.53R VSB 1/2 WCI  33  
S. S. MARIE    CLOUDY    43  39  86 NE6       29.52R                  
MUNISING         N/A     35  33  92 N17       29.59R WCI  25          
$$
MIZ004>006-011>014-085-181700-
CENTRAL UPPER MICHIGAN
  
CITY           SKY/WX    TMP DP  RH WIND       PRES   REMARKS
MANISTIQUE     CLOUDY    39  34  80 N7        29.53F WCI  34          
SAWYER-GWINN   FOG       36  36 100 N16G25    29.59R VSB 1/2 WCI  26  
$$
MIZ001>003-009>011-084-181700-
WESTERN UPPER MICHIGAN
  
CITY           SKY/WX    TMP DP  RH WIND       PRES   REMARKS
IRON MOUNTAIN  CLOUDY    40  35  83 N15G23    29.60R WCI  32          
HOUGHTON       CLOUDY    39  34  82 N13G22    29.68R WCI  31          
COPPER HARBOR    N/A     37  34  89 NE12      29.67R WCI  29          
IRONWOOD       LGT RAIN  36  35  96 N6        29.75R WCI  31          
$$

ABBREVIATIONS USED IN REMARKS
   TC - TEMPERATURE IN CELSIUS
  WCI - WIND CHILL INDEX
   HX - HEAT INDEX
  VSB - VISIBILITY